Temp
22 22 22 21 21 21 22 21 20 21 23 23 22 21 20 19 18 17 16 15 14 13 12 11 9 9 8 8 7 7 7 7 7 6 6 6 5 5 5 4 4 4 4 4
13 19 21 21 21 22 22 22 22 23 23 22 21 20 18 18 17 16 15 13 12 11 10 9 8 8 7 7 6 6 6 6 5 5 5 5 4 4 4 4 5 4 4 4
17 21 20 19 21 22 22 23 23 22 23 22 20 19 18 16 15 14 13 12 10 10 9 8 7 7 7 6 6 5 4 4 4 4 3 3 3 3 3 3 3 3 3 3
15 18 16 21 23 23 22 22 23 22 21 20 19 17 15 15 14 12 11 10 9 8 8 7 6 6 5 5 5 4 4 3 3 2 2 2 2 2 2 2 2 2 2 3
15 18 20 22 23 22 22 21 21 20 19 18 16 14 13 12 11 10 9 8 8 8 7 7 5 5 5 5 4 4 3 2 2 2 2 2 2 1 1 1 1 1 2 2
15 16 17 22 21 21 21 19 19 17 17 17 15 11 12 10 9 8 8 8 7 7 7 6 5 4 4 4 4 3 2 2 1 1 1 1 1 1 0 0 0 0 0 0
14 14 18 22 21 20 16 18 17 17 16 14 13 11 10 9 8 7 7 7 6 6 6 5 4 4 4 4 3 2 1 1 1 1 0 0 0 -0 -0 -0 -1 -1 -1 -1
14 15 14 21 19 17 18 17 16 16 15 12 9 9 9 10 8 7 7 7 6 6 5 4 4 3 3 3 2 1 0 0 0 -0 -0 -1 -1 -1 -1 -1 -2 -2 -2 -2
18 18 19 20 19 18 17 16 17 15 12 9 8 9 10 9 8 7 7 6 6 5 5 4 3 2 2 1 1 -0 -0 -0 -1 -1 -1 -2 -2 -2 -2 -2 -3 -3 -4 -4
18 19 20 19 19 18 17 16 14 13 9 8 9 11 10 9 7 6 6 6 5 4 4 3 2 2 1 -0 -1 -1 -1 -2 -2 -2 -3 -3 -3 -3 -3 -4 -5 -5 -5 -5
17 18 18 19 20 19 17 13 11 10 8 8 11 10 9 8 6 5 5 4 4 3 3 3 2 1 -0 -1 -2 -2 -3 -3 -3 -3 -4 -4 -4 -5 -5 -6 -6 -7 -7 -7
15 17 18 18 19 16 15 12 10 8 8 10 10 9 8 7 5 4 4 3 3 2 2 2 1 0 -1 -2 -3 -4 -4 -4 -4 -5 -5 -5 -6 -6 -6 -7 -7 -7 -7 -7
17 18 19 17 15 15 14 12 9 8 9 9 8 7 6 6 4 1 3 2 2 1 1 0 -1 -2 -3 -4 -5 -5 -6 -5 -5 -5 -6 -6 -7 -7 -7 -7 -7 -8 -8 -7
18 18 14 14 14 13 12 9 7 9 8 6 6 5 4 4 1 2 2 1 1 0 -0 -1 -2 -3 -4 -5 -5 -6 -6 -6 -6 -6 -7 -7 -7 -8 -8 -8 -8 -8 -8 -8
17 18 17 17 14 12 10 8 8 8 6 5 4 4 3 3 2 1 0 -1 -1 -1 -1 -2 -4 -4 -5 -6 -7 -6 -6 -6 -6 -7 -7 -8 -8 -8 -8 -9 -9 -9 -9 -9
17 17 18 15 14 11 9 9 8 7 5 4 4 3 2 2 1 0 -1 -2 -3 -2 -3 -5 -5 -6 -7 -8 -7 -7 -7 -7 -7 -7 -8 -8 -8 -9 -9 -10 -10 -10 -10 -10
16 16 16 15 12 10 9 9 8 7 5 4 3 2 1 1 -0 -1 -2 -3 -3 -5 -5 -5 -7 -8 -10 -9 -9 -8 -8 -8 -7 -7 -8 -8 -9 -9 -10 -10 -10 -11 -11 -11
17 17 16 13 11 10 9 8 7 5 4 3 2 1 -1 -1 0 -2 -3 -4 -7 -7 -6 -8 -9 -10 -10 -9 -9 -9 -9 -8 -7 -8 -9 -9 -9 -10 -10 -10 -11 -11 -11 -11
16 16 15 13 11 10 8 7 6 4 2 1 -1 -2 -4 -5 -2 -3 -6 -8 -7 -5 -7 -9 -9 -9 -8 -8 -9 -9 -9 -8 -8 -8 -9 -10 -10 -10 -11 -11 -11 -11 -12 -12
15 15 14 12 11 8 7 5 4 2 1 -1 -3 -4 -5 -7 -7 -8 -8 -7 -7 -7 -9 -8 -9 -7 -8 -9 -10 -10 -8 -8 -8 -9 -10 -10 -10 -11 -11 -11 -12 -12 -12 -12
13 12 11 10 8 6 4 3 2 0 -1 -4 -4 -5 -5 -6 -8 -8 -7 -3 -7 -8 -8 -9 -8 -7 -9 -10 -11 -9 -9 -9 -9 -9 -10 -10 -11 -11 -11 -12 -12 -12 -13 -13
11 10 4 4 3 1 1 1 -1 -4 -5 -5 -5 -6 -7 -7 -8 -8 -7 -5 -6 -8 -9 -8 -7 -10 -11 -11 -11 -9 -9 -10 -10 -10 -10 -11 -11 -11 -12 -12 -12 -13 -13 -13
8 5 3 1 1 -0 0 -1 -5 -5 -6 -6 -7 -7 -6 -3 -3 -3 -3 -6 -7 -8 -9 -8 -10 -10 -11 -12 -11 -10 -10 -11 -11 -10 -11 -11 -12 -12 -12 -12 -13 -13 -14 -14
6 3 2 1 1 0 -0 -3 -3 -5 -5 -6 -6 -6 -5 -5 -5 -5 -5 -7 -9 -10 -10 -10 -11 -11 -11 -12 -11 -11 -11 -11 -11 -11 -12 -12 -12 -12 -12 -13 -13 -14 -14 -15
4 2 1 1 1 1 -1 -2 -2 -3 -3 -3 -5 -6 -6 -4 -4 -4 -6 -8 -9 -10 -9 -10 -11 -12 -12 -12 -11 -12 -12 -12 -12 -12 -12 -13 -13 -13 -13 -13 -14 -14 -15 -15
3 3 2 2 2 2 0 -0 -0 -1 -1 -2 -3 -4 -5 -5 -6 -7 -8 -8 -10 -9 -10 -10 -11 -12 -12 -11 -12 -12 -12 -12 -12 -12 -13 -13 -13 -13 -14 -14 -15 -15 -15 -15
3 3 2 3 2 1 1 1 1 -0 -1 -2 -2 -4 -5 -6 -6 -7 -8 -9 -8 -9 -9 -10 -10 -11 -12 -12 -12 -12 -12 -12 -12 -13 -14 -14 -14 -14 -15 -15 -16 -15 -15 -15
Height
802 802 802 804 802 800 801 799 808 796 789 779 786 789 795 799 805 811 817 820 823 824 826 828 829 829 828 827 825 823 821 818 816 814 812 808 805 802 799 796 792 788 783 779
839 813 804 803 793 791 790 789 788 786 784 784 790 794 800 805 810 815 820 824 827 829 832 832 832 831 830 829 827 825 822 820 817 815 812 808 805 801 796 792 787 783 778 774
821 803 802 811 790 783 783 778 781 788 777 779 785 797 802 809 816 821 826 829 831 832 833 834 834 833 832 830 828 825 823 821 818 815 812 808 804 799 794 790 785 780 775 770
830 813 828 787 773 773 780 778 776 779 784 790 795 803 811 814 820 827 831 833 834 835 835 835 835 834 832 830 828 826 824 822 819 815 811 807 802 797 793 788 782 776 770 765
825 811 791 777 771 775 779 783 782 788 792 797 808 813 818 825 828 832 835 836 836 836 836 835 835 834 832 829 827 826 824 822 818 813 809 804 799 795 790 784 779 773 766 760
822 818 809 775 780 779 782 793 787 796 797 799 808 818 817 827 831 834 835 836 837 836 835 835 835 834 831 829 827 826 824 821 817 812 807 802 797 792 787 781 775 769 762 757
822 821 798 774 777 783 804 797 795 797 800 807 811 819 823 829 833 834 835 836 838 836 835 835 835 833 831 828 827 826 823 819 815 810 805 800 794 789 784 777 771 765 759 752
819 813 812 773 783 795 789 792 795 798 803 811 819 821 824 827 831 834 834 835 836 835 835 835 835 833 830 828 828 825 822 817 812 808 803 798 793 786 780 774 768 762 755 747
789 789 780 778 779 785 790 792 792 797 808 817 818 821 821 827 830 833 833 834 836 835 835 834 834 833 831 829 827 824 820 815 810 806 801 797 790 784 777 772 766 760 753 746
782 776 772 775 777 783 788 792 798 802 811 815 815 814 820 825 830 832 832 834 835 835 834 833 833 832 831 830 827 823 818 813 808 803 799 794 789 784 777 771 765 759 752 744
782 779 779 777 773 775 782 796 802 807 810 811 808 813 820 825 830 832 833 834 835 835 834 833 833 832 831 829 826 822 817 812 807 803 798 791 786 783 777 771 767 759 751 744
781 776 774 772 771 779 785 794 800 805 808 806 808 815 821 825 830 832 833 835 835 835 834 833 832 831 830 828 826 821 817 812 808 803 797 790 784 774 774 768 761 756 749 742
771 768 768 771 777 780 784 792 799 803 803 808 813 817 822 825 829 833 833 834 835 834 834 833 832 831 830 828 825 821 817 813 807 801 795 789 782 776 765 757 755 750 744 736
763 765 772 775 774 780 784 791 797 799 805 810 814 818 822 826 831 830 832 834 834 834 833 833 832 830 829 827 824 821 817 812 806 800 795 788 782 774 767 759 750 742 738 732
755 757 757 763 772 778 786 790 793 799 805 810 813 818 822 826 827 829 833 834 833 833 833 832 831 830 828 826 823 819 814 809 804 799 793 787 779 772 766 759 752 745 737 730
749 750 750 758 765 777 784 786 790 797 804 808 812 817 821 825 826 829 832 833 834 833 832 832 831 830 827 825 821 817 813 808 803 796 790 784 778 771 765 759 752 745 739 732
743 742 743 748 762 770 777 783 788 794 801 805 810 816 820 824 826 828 830 832 833 833 831 830 830 828 825 824 820 816 811 805 800 794 788 783 776 770 764 757 751 745 739 734
735 734 740 752 761 765 771 779 786 792 798 803 808 814 819 822 822 826 829 831 831 830 829 829 828 826 824 822 819 815 809 803 797 793 787 781 775 769 762 756 750 744 738 733
727 730 737 746 754 761 769 776 784 792 797 802 807 813 818 822 823 825 829 829 828 827 827 827 826 824 822 820 817 812 807 801 796 791 786 779 773 767 761 755 749 743 738 732
720 724 729 739 749 759 769 777 784 790 796 801 806 812 817 819 821 825 827 826 825 825 825 825 823 822 820 818 814 809 804 800 795 790 784 778 772 766 759 753 748 742 737 732
718 725 732 741 751 761 769 776 782 788 794 799 804 810 814 817 821 824 824 820 823 823 823 822 821 819 818 815 811 807 803 799 794 789 783 777 771 764 758 752 745 740 734 730
723 729 738 746 755 764 771 777 783 788 794 798 804 808 811 816 820 821 820 820 821 821 821 820 818 816 815 811 809 806 802 798 793 788 782 777 770 763 757 750 743 737 732 727
728 737 745 751 758 766 773 778 784 788 792 797 802 806 809 813 815 815 814 817 819 818 818 817 815 813 811 808 807 804 800 796 792 787 781 776 770 763 756 749 742 735 730 724
733 742 750 756 762 767 772 780 785 790 792 798 800 803 808 812 813 812 813 814 815 815 815 814 813 810 808 807 805 802 798 794 790 785 780 774 768 762 755 747 740 734 728 722
737 744 751 755 760 766 772 778 784 788 793 796 800 803 807 808 809 808 811 813 813 813 813 812 810 808 806 805 802 800 796 792 788 783 778 773 766 760 753 746 739 732 724 718
738 743 748 754 757 763 769 776 779 785 788 792 797 801 804 806 806 807 809 810 810 811 810 809 808 806 804 802 800 797 794 790 785 781 777 771 765 758 752 745 737 729 722 714
739 743 748 752 757 763 768 772 776 780 784 788 793 798 801 802 803 804 806 807 808 808 807 806 805 803 801 799 797 794 791 787 783 779 774 769 763 757 750 743 735 728 720 712
Wind_Speed
12 13 12 13 15 15 16 16 16 17 19 13 12 7 6 7 7 7 7 7 8 9 11 13 13 13 13 14 15 17 16 17 18 19 19 20 22 23 25 26 27 27 29 30
3 13 15 15 19 18 18 18 18 17 15 4 3 5 5 4 3 4 5 6 8 9 10 11 12 13 13 14 15 16 17 18 19 20 21 22 23 25 26 27 28 29 29 30
10 10 6 11 15 16 14 12 10 12 13 14 5 4 4 3 2 3 4 6 6 7 8 9 12 13 15 15 15 16 17 18 19 20 22 23 24 26 26 27 28 29 30 32
4 8 5 11 2 4 6 7 9 8 13 10 9 8 5 4 4 3 3 3 5 7 8 9 12 13 14 13 14 15 16 18 20 22 23 25 26 27 27 29 29 30 31 31
4 9 11 15 8 7 5 9 4 2 8 3 5 5 6 5 4 4 4 3 4 6 7 9 11 12 12 12 14 16 18 21 22 23 25 27 28 28 29 30 31 32 32 33
5 6 5 2 5 4 4 10 8 6 7 4 6 3 2 6 5 5 3 3 6 7 8 8 9 11 12 13 15 18 20 22 23 24 26 28 29 30 30 31 32 34 35 35
10 5 8 11 8 2 3 2 2 4 4 4 5 2 9 7 5 4 2 3 6 6 6 7 9 11 13 14 15 18 21 23 24 25 27 27 30 30 32 32 33 32 33 33
7 5 8 5 6 5 4 2 3 5 2 5 7 7 6 6 5 4 1 3 5 5 6 7 9 12 14 14 17 20 22 23 25 26 27 29 31 32 31 32 31 31 33 34
7 5 5 4 3 3 4 7 6 4 6 8 6 8 8 7 5 3 2 3 3 5 6 7 9 12 14 16 19 21 23 25 26 27 28 29 31 32 32 29 30 31 29 32
8 9 13 8 5 7 5 5 1 5 10 8 8 10 8 6 4 3 0 3 4 6 7 8 10 12 13 17 19 22 24 25 26 28 30 31 30 29 29 29 30 28 30 31
12 13 12 16 14 6 4 5 6 8 8 9 10 9 7 5 4 2 1 1 4 6 7 9 11 12 14 17 20 22 24 25 26 28 30 32 30 30 31 31 30 33 33 32
9 9 10 11 8 1 8 9 9 9 9 9 8 8 7 5 4 3 1 2 5 6 8 10 11 13 15 17 20 22 24 25 27 29 30 30 32 36 30 31 34 33 34 34
15 15 16 8 2 6 7 10 11 11 11 10 9 9 7 6 5 3 1 2 4 6 8 10 11 13 15 18 20 21 23 26 28 28 29 30 31 31 34 36 34 32 33 34
17 16 8 9 7 8 8 13 15 13 12 12 11 9 8 7 7 4 1 3 5 7 7 9 11 13 16 18 20 21 23 25 26 27 28 29 30 31 30 30 31 35 35 34
24 22 19 14 9 10 14 16 14 13 14 13 13 11 10 9 6 4 1 2 5 6 7 9 11 13 16 18 20 22 23 25 27 28 28 30 29 30 30 30 29 30 32 32
20 20 21 16 12 13 14 16 15 14 15 15 14 12 11 8 6 4 1 2 4 6 7 8 10 14 16 18 19 21 22 24 26 27 28 28 29 29 28 29 28 28 28 29
20 20 16 13 14 16 18 14 14 15 17 16 15 14 12 9 7 5 2 2 3 4 7 8 9 13 16 15 18 21 23 24 25 27 27 28 28 28 29 28 27 26 27 29
21 20 13 13 14 16 16 18 18 19 17 18 17 15 11 8 5 4 2 3 3 4 4 5 11 13 15 14 18 20 22 22 26 26 28 28 28 29 28 28 28 27 27 28
23 20 17 19 17 18 18 20 20 20 19 19 18 15 12 9 6 4 3 4 3 4 3 9 11 12 13 16 18 21 19 23 25 26 27 27 28 27 28 27 27 27 27 26
17 23 15 15 19 21 21 23 23 21 20 20 19 16 12 9 7 5 5 5 2 2 6 9 11 11 13 16 20 18 19 22 24 26 26 28 27 28 28 28 27 26 25 24
10 13 15 17 20 22 23 25 24 21 21 22 19 15 12 10 8 7 7 3 4 2 7 9 9 11 13 17 21 16 20 22 23 25 26 27 28 28 28 28 27 26 25 24
12 12 13 18 20 19 22 25 22 23 22 20 16 16 13 9 9 9 5 3 2 5 6 8 8 11 17 22 14 17 19 21 22 24 25 26 28 28 28 29 28 27 25 24
14 18 22 22 23 25 26 22 21 23 21 20 18 15 12 9 9 6 4 5 2 5 7 7 10 16 18 16 14 17 19 20 21 23 24 26 27 28 29 29 29 28 27 25
18 21 22 24 25 26 21 20 21 18 18 16 15 14 11 9 7 4 3 3 4 5 8 8 11 16 18 12 14 16 18 19 20 22 24 25 26 27 29 29 29 28 27 26
21 23 25 25 23 20 21 24 20 19 17 14 12 11 10 8 7 6 4 3 5 6 7 9 12 13 11 12 14 16 17 18 20 22 23 24 25 27 28 30 30 30 29 27
23 21 22 23 20 22 22 23 18 19 17 14 12 12 12 9 7 6 4 4 5 6 8 9 10 11 11 13 15 15 17 18 19 20 22 23 25 26 28 31 31 32 31 30
21 22 22 19 19 20 21 20 19 18 16 14 13 13 12 10 8 6 5 5 6 7 9 9 10 11 13 13 14 15 16 17 18 20 20 22 25 26 29 30 31 32 33 31
Wind_Direction
295 308 300 287 278 271 265 245 252 276 292 337 19 39 69 84 86 86 71 59 48 43 39 34 29 23 15 8 3 357 353 349 344 338 332 326 322 321 316 313 310 309 310 308
294 280 267 271 267 264 260 261 269 279 285 22 74 102 85 83 98 93 76 56 50 45 35 27 18 9 2 356 354 350 347 342 337 334 330 327 324 321 318 315 313 310 305 302
269 266 295 284 260 249 256 264 260 286 309 1 202 165 117 126 94 78 58 51 48 38 27 17 8 358 350 345 346 348 347 344 342 339 335 332 329 325 322 320 317 314 312 311
257 278 246 242 306 337 302 295 295 331 356 4 38 87 104 66 113 90 67 46 38 20 4 4 355 349 344 349 349 347 346 341 338 335 330 326 323 321 319 316 313 311 308 305
242 236 265 275 271 265 266 284 47 29 12 35 107 127 129 110 86 97 78 42 15 360 346 347 353 347 344 346 347 344 343 336 332 329 326 324 322 321 318 318 315 312 310 309
211 246 240 79 136 57 332 266 89 52 360 315 170 233 91 144 133 125 100 33 354 338 340 352 351 346 342 344 342 341 335 331 328 328 326 324 322 320 319 316 315 313 312 310
230 256 265 272 121 158 215 70 107 343 322 216 217 93 115 135 143 122 88 359 335 338 347 351 345 344 340 339 342 334 331 329 329 329 327 324 321 320 317 318 317 315 311 310
215 234 257 233 149 221 74 84 299 296 240 180 126 130 157 169 163 163 283 337 335 335 347 346 347 346 339 339 337 333 332 330 330 329 327 324 325 318 319 318 316 315 313 313
209 219 140 185 349 20 326 311 307 223 166 166 162 200 184 181 182 180 322 329 336 341 336 346 350 345 337 339 335 334 332 332 330 328 326 327 323 323 321 321 320 316 317 316
261 264 251 222 250 240 257 284 127 167 176 182 209 195 183 182 182 230 8 335 339 322 338 344 346 339 339 337 336 335 333 332 330 329 331 326 323 323 322 322 319 320 317 312
257 264 281 277 275 323 138 145 156 170 180 214 213 180 180 179 183 198 167 334 325 330 341 339 336 336 340 339 339 336 333 330 331 330 326 321 322 324 322 316 319 315 313 311
247 257 255 290 295 85 167 185 184 185 192 190 181 166 181 172 180 178 176 325 318 335 340 333 332 338 340 341 340 337 332 332 328 325 321 323 323 320 319 316 316 317 314 310
246 247 289 318 208 183 195 179 172 183 182 163 168 166 181 170 167 145 214 291 322 337 328 330 337 339 341 340 337 334 331 325 323 321 326 324 322 321 318 322 321 322 323 320
254 256 238 219 225 199 188 169 172 174 166 171 162 163 167 167 163 171 230 310 333 327 329 339 337 339 340 338 334 331 326 322 323 327 323 321 321 317 320 322 323 326 326 325
255 250 250 252 204 189 176 170 173 171 171 172 165 165 168 179 170 168 218 320 327 312 330 339 340 339 340 337 331 328 327 325 328 324 322 320 319 322 321 321 323 321 325 327
251 252 246 215 208 190 190 183 181 181 175 171 167 168 172 174 163 164 182 360 324 332 326 338 337 339 338 334 330 328 326 325 326 324 322 325 324 323 323 324 320 324 325 325
254 248 239 209 196 194 198 190 190 180 176 171 168 166 170 169 169 173 173 289 313 315 328 334 336 333 334 330 328 325 324 325 324 327 326 325 324 326 322 320 322 322 321 324
255 248 214 210 207 198 192 188 186 176 174 170 162 168 155 174 175 165 195 264 305 316 336 339 336 330 329 325 325 323 323 322 328 328 325 326 326 322 323 323 322 321 322 322
242 245 199 200 208 198 185 177 177 172 166 162 149 155 160 164 167 163 213 249 256 285 24 338 328 328 327 326 325 324 321 324 327 328 328 326 325 326 325 323 323 322 321 320
234 229 214 188 193 177 173 171 167 164 165 156 150 146 156 159 162 187 222 247 272 311 323 326 325 326 327 327 321 325 325 327 326 328 328 326 326 326 326 326 324 322 321 318
197 182 173 169 161 165 168 164 161 155 153 153 151 160 162 157 175 202 221 253 157 294 320 324 322 323 326 321 327 324 327 327 328 328 329 330 327 328 327 327 326 323 320 317
175 164 133 140 144 142 148 156 149 142 146 147 149 153 148 164 193 216 209 226 271 310 317 319 318 314 323 326 325 324 326 328 327 327 329 329 329 328 327 326 326 325 320 315
162 150 149 148 156 152 152 152 151 152 149 154 161 160 163 193 201 203 192 179 256 286 311 309 299 313 323 329 322 323 326 327 327 327 329 328 328 327 327 327 327 326 324 318
154 161 157 156 153 151 150 156 157 159 151 159 164 165 171 196 200 188 176 253 300 292 305 298 296 314 323 324 320 322 324 326 326 328 327 328 327 327 329 329 329 326 323 320
160 158 160 157 157 158 154 158 157 156 163 164 165 175 197 209 199 167 190 225 276 297 294 303 303 317 320 316 316 318 321 323 325 326 326 327 327 329 328 330 327 325 322 321
160 162 161 163 160 158 160 165 163 170 169 164 172 185 193 192 183 178 206 235 275 288 298 301 306 307 312 312 313 316 318 322 325 326 326 327 328 328 328 328 328 328 325 322
162 156 157 156 159 161 167 170 169 169 170 170 180 186 190 191 192 196 218 249 270 283 292 299 303 306 307 307 311 313 315 319 322 324 326 328 328 328 327 327 327 328 328 327